Time,TemperatureF,DewpointF,PressureIn,WindDirection,WindDirectionDegrees,WindSpeedMPH,WindSpeedGustMPH,Humidity,HourlyPrecipIn,Conditions,Clouds,dailyrainin,SoftwareType,DateUTC
2013-02-21 00:00:00,53.0,52.0,30.07,ESE,110,1.0,2.0,95,-99.99,,,-99.99,,2013-02-21 05:00:00,
2013-02-21 00:03:00,54.0,53.0,30.08,WNW,292,1.0,2.0,95,-99.99,,,-99.99,,2013-02-21 05:03:00,
2013-02-21 00:22:00,54.0,53.0,30.08,SE,141,1.0,1.0,95,-99.99,,,-99.99,,2013-02-21 05:22:00,
2013-02-21 00:36:00,54.0,53.0,30.08,SE,141,1.0,1.0,95,-99.99,,,-99.99,,2013-02-21 05:36:00,
2013-02-21 00:46:00,53.0,52.0,30.07,ESE,110,1.0,2.0,95,-99.99,,,-99.99,,2013-02-21 05:46:00,
2013-02-21 01:01:00,53.0,51.0,30.07,SSE,160,1.0,2.0,96,-99.99,,,-99.99,,2013-02-21 06:01:00,
2013-02-21 01:21:00,53.0,52.0,30.07,SE,124,1.0,2.0,96,-99.99,,,-99.99,,2013-02-21 06:21:00,
2013-02-21 01:41:00,52.0,51.0,30.06,SSW,212,0.0,1.0,96,-99.99,,,-99.99,,2013-02-21 06:41:00,
2013-02-21 01:52:00,52.0,51.0,30.06,SSW,212,0.0,1.0,96,-99.99,,,-99.99,,2013-02-21 06:52:00,
2013-02-21 02:01:00,53.0,52.0,30.06,SSW,205,1.0,2.0,96,-99.99,,,-99.99,,2013-02-21 07:01:00,
2013-02-21 02:11:00,53.0,52.0,30.06,SSW,205,1.0,2.0,96,-99.99,,,-99.99,,2013-02-21 07:11:00,
2013-02-21 02:21:00,53.0,52.0,30.05,SSE,158,1.0,1.0,96,-99.99,,,-99.99,,2013-02-21 07:21:00,
2013-02-21 02:42:00,53.0,52.0,30.05,SW,223,1.0,2.0,96,-99.99,,,-99.99,,2013-02-21 07:42:00,
2013-02-21 02:52:00,53.0,52.0,30.05,SW,223,1.0,2.0,96,-99.99,,,-99.99,,2013-02-21 07:52:00,
2013-02-21 03:02:00,53.0,52.0,30.03,SSE,148,2.0,3.0,96,-99.99,,,-99.99,,2013-02-21 08:02:00,
2013-02-21 03:11:00,53.0,52.0,30.03,SSE,148,2.0,3.0,96,-99.99,,,-99.99,,2013-02-21 08:11:00,
2013-02-21 03:21:00,53.0,52.0,30.02,SE,138,3.0,3.0,96,-99.99,,,-99.99,,2013-02-21 08:21:00,
2013-02-21 03:32:00,53.0,52.0,30.02,SE,138,3.0,3.0,96,-99.99,,,-99.99,,2013-02-21 08:32:00,
2013-02-21 03:42:00,54.0,53.0,30.02,ESE,107,1.0,3.0,97,-99.99,,,-99.99,,2013-02-21 08:42:00,
2013-02-21 03:52:00,54.0,53.0,30.02,ESE,107,1.0,3.0,97,-99.99,,,-99.99,,2013-02-21 08:52:00,
2013-02-21 04:02:00,54.0,53.0,30.01,SSE,147,2.0,4.0,96,-99.99,,,-99.99,,2013-02-21 09:02:00,
2013-02-21 04:11:00,54.0,53.0,30.01,SSE,147,2.0,4.0,96,-99.99,,,-99.99,,2013-02-21 09:11:00,
2013-02-21 04:22:00,53.0,53.0,30.01,ESE,114,1.0,2.0,97,-99.99,,,-99.99,,2013-02-21 09:22:00,
2013-02-21 04:32:00,53.0,53.0,30.01,ESE,114,1.0,2.0,97,-99.99,,,-99.99,,2013-02-21 09:32:00,
2013-02-21 04:42:00,53.0,53.0,30.01,SW,230,1.0,1.0,97,-99.99,,,-99.99,,2013-02-21 09:42:00,
2013-02-21 04:52:00,53.0,53.0,30.01,SW,230,1.0,1.0,97,-99.99,,,-99.99,,2013-02-21 09:52:00,
2013-02-21 05:01:00,54.0,53.0,30.02,South,180,1.0,2.0,97,-99.99,,,-99.99,,2013-02-21 10:01:00,
2013-02-21 05:11:00,54.0,53.0,30.02,South,180,1.0,2.0,97,-99.99,,,-99.99,,2013-02-21 10:11:00,
2013-02-21 05:21:00,54.0,53.0,30.02,NE,37,2.0,3.0,97,-99.99,,,-99.99,,2013-02-21 10:21:00,
2013-02-21 05:31:00,54.0,53.0,30.02,NE,37,2.0,3.0,97,-99.99,,,-99.99,,2013-02-21 10:31:00,
2013-02-21 05:41:00,53.0,53.0,30.02,WSW,249,1.0,2.0,97,-99.99,,,-99.99,,2013-02-21 10:41:00,
2013-02-21 05:51:00,53.0,53.0,30.02,WSW,249,1.0,2.0,97,-99.99,,,-99.99,,2013-02-21 10:51:00,
2013-02-21 06:01:00,54.0,53.0,30.03,ENE,75,1.0,3.0,97,-99.99,,,-99.99,,2013-02-21 11:01:00,
2013-02-21 06:11:00,54.0,53.0,30.03,ENE,75,1.0,3.0,97,-99.99,,,-99.99,,2013-02-21 11:11:00,
2013-02-21 06:21:00,54.0,54.0,30.03,NNE,33,3.0,4.0,97,-99.99,,,-99.99,,2013-02-21 11:21:00,
2013-02-21 06:31:00,54.0,54.0,30.03,NNE,33,3.0,4.0,97,-99.99,,,-99.99,,2013-02-21 11:31:00,
2013-02-21 06:41:00,54.0,54.0,30.03,NNE,33,3.0,4.0,97,-99.99,,,-99.99,,2013-02-21 11:41:00,
2013-02-21 06:52:00,54.0,54.0,30.03,NNE,33,3.0,4.0,97,-99.99,,,-99.99,,2013-02-21 11:52:00,
2013-02-21 07:01:00,57.0,56.0,30.04,NNE,33,1.0,3.0,97,-99.99,,,-99.99,,2013-02-21 12:01:00,
2013-02-21 07:11:00,57.0,56.0,30.04,NNE,33,1.0,3.0,97,-99.99,,,-99.99,,2013-02-21 12:11:00,
2013-02-21 07:22:00,55.0,55.0,30.05,ENE,70,1.0,2.0,97,-99.99,,,-99.99,,2013-02-21 12:22:00,
2013-02-21 07:32:00,55.0,55.0,30.05,ENE,70,1.0,2.0,97,-99.99,,,-99.99,,2013-02-21 12:32:00,
2013-02-21 07:43:00,55.0,54.0,30.05,NE,38,2.0,3.0,97,-99.99,,,-99.99,,2013-02-21 12:43:00,
2013-02-21 07:53:00,55.0,54.0,30.05,NE,38,2.0,3.0,97,-99.99,,,-99.99,,2013-02-21 12:53:00,
2013-02-21 08:02:00,59.0,58.0,30.06,NE,38,4.0,7.0,98,-99.99,,,-99.99,,2013-02-21 13:02:00,
2013-02-21 08:12:00,59.0,58.0,30.06,NE,38,4.0,7.0,98,-99.99,,,-99.99,,2013-02-21 13:12:00,
2013-02-21 08:22:00,59.0,59.0,30.07,NE,42,3.0,6.0,98,-99.99,,,-99.99,,2013-02-21 13:22:00,
2013-02-21 08:32:00,59.0,59.0,30.07,NE,42,3.0,6.0,98,-99.99,,,-99.99,,2013-02-21 13:32:00,
2013-02-21 08:42:00,59.0,59.0,30.08,NE,42,3.0,6.0,98,-99.99,,,-99.99,,2013-02-21 13:42:00,
2013-02-21 08:52:00,59.0,59.0,30.08,NE,42,3.0,6.0,98,-99.99,,,-99.99,,2013-02-21 13:52:00,
2013-02-21 09:02:00,61.0,61.0,30.09,NE,51,4.0,7.0,98,-99.99,,,-99.99,,2013-02-21 14:02:00,
2013-02-21 09:11:00,61.0,61.0,30.09,NE,51,4.0,7.0,98,-99.99,,,-99.99,,2013-02-21 14:11:00,
2013-02-21 09:22:00,63.0,62.0,30.09,ENE,66,3.0,6.0,98,-99.99,,,-99.99,,2013-02-21 14:22:00,
2013-02-21 09:32:00,63.0,62.0,30.09,ENE,66,3.0,6.0,98,-99.99,,,-99.99,,2013-02-21 14:32:00,
2013-02-21 09:42:00,65.0,64.0,30.09,ENE,58,3.0,7.0,97,-99.99,,,-99.99,,2013-02-21 14:42:00,
2013-02-21 09:52:00,65.0,64.0,30.09,ENE,58,3.0,7.0,97,-99.99,,,-99.99,,2013-02-21 14:52:00,
2013-02-21 10:02:00,71.0,65.0,30.09,SE,124,5.0,9.0,81,-99.99,,,-99.99,,2013-02-21 15:02:00,
2013-02-21 10:22:00,74.0,66.0,30.08,SE,132,7.0,14.0,74,-99.99,,,-99.99,,2013-02-21 15:22:00,
2013-02-21 10:42:00,75.0,66.0,30.08,SE,136,7.0,17.0,73,-99.99,,,-99.99,,2013-02-21 15:42:00,
2013-02-21 10:52:00,75.0,66.0,30.08,SE,136,7.0,17.0,73,-99.99,,,-99.99,,2013-02-21 15:52:00,
2013-02-21 11:02:00,78.0,66.0,30.09,SE,140,8.0,16.0,66,-99.99,,,-99.99,,2013-02-21 16:02:00,
2013-02-21 11:12:00,78.0,66.0,30.09,SE,140,8.0,16.0,66,-99.99,,,-99.99,,2013-02-21 16:12:00,
2013-02-21 11:22:00,79.0,66.0,30.09,SE,138,8.0,14.0,65,-99.99,,,-99.99,,2013-02-21 16:22:00,
2013-02-21 11:32:00,79.0,66.0,30.09,SE,138,8.0,14.0,65,-99.99,,,-99.99,,2013-02-21 16:32:00,
2013-02-21 11:42:00,79.0,66.0,30.09,SE,146,5.0,10.0,65,-99.99,,,-99.99,,2013-02-21 16:42:00,
2013-02-21 11:52:00,79.0,66.0,30.09,SE,146,5.0,10.0,65,-99.99,,,-99.99,,2013-02-21 16:52:00,
2013-02-21 12:02:00,81.0,65.0,30.09,SE,132,4.0,9.0,59,-99.99,,,-99.99,,2013-02-21 17:02:00,
2013-02-21 12:11:00,81.0,65.0,30.09,SE,132,4.0,9.0,59,-99.99,,,-99.99,,2013-02-21 17:11:00,
2013-02-21 12:21:00,80.0,65.0,30.08,SE,145,6.0,13.0,59,-99.99,,,-99.99,,2013-02-21 17:21:00,
2013-02-21 12:32:00,80.0,65.0,30.08,SE,145,6.0,13.0,59,-99.99,,,-99.99,,2013-02-21 17:32:00,
2013-02-21 12:42:00,81.0,65.0,30.08,SSE,151,5.0,15.0,58,-99.99,,,-99.99,,2013-02-21 17:42:00,
2013-02-21 12:52:00,81.0,65.0,30.08,SSE,151,5.0,15.0,58,-99.99,,,-99.99,,2013-02-21 17:52:00,
2013-02-21 13:02:00,82.0,65.0,30.07,SSE,150,6.0,11.0,55,-99.99,,,-99.99,,2013-02-21 18:02:00,
2013-02-21 13:12:00,82.0,65.0,30.07,SSE,150,6.0,11.0,55,-99.99,,,-99.99,,2013-02-21 18:12:00,
2013-02-21 13:22:00,82.0,65.0,30.06,SE,127,6.0,11.0,54,-99.99,,,-99.99,,2013-02-21 18:22:00,
2013-02-21 13:32:00,82.0,65.0,30.06,SE,127,6.0,11.0,54,-99.99,,,-99.99,,2013-02-21 18:32:00,
2013-02-21 13:42:00,84.0,64.0,30.05,SSE,152,6.0,12.0,50,-99.99,,,-99.99,,2013-02-21 18:42:00,
2013-02-21 13:52:00,84.0,64.0,30.05,SSE,152,6.0,12.0,50,-99.99,,,-99.99,,2013-02-21 18:52:00,
2013-02-21 14:02:00,85.0,64.0,30.04,SSE,167,8.0,37.0,50,-99.99,,,-99.99,,2013-02-21 19:02:00,
2013-02-21 14:12:00,85.0,64.0,30.04,SSE,167,8.0,37.0,50,-99.99,,,-99.99,,2013-02-21 19:12:00,
2013-02-21 14:21:00,85.0,64.0,30.03,SSE,164,8.0,39.0,49,-99.99,,,-99.99,,2013-02-21 19:21:00,
2013-02-21 14:32:00,85.0,64.0,30.03,SSE,164,8.0,39.0,49,-99.99,,,-99.99,,2013-02-21 19:32:00,
2013-02-21 14:42:00,84.0,64.0,30.02,South,176,8.0,12.0,50,-99.99,,,-99.99,,2013-02-21 19:42:00,
2013-02-21 14:52:00,84.0,64.0,30.02,South,176,8.0,12.0,50,-99.99,,,-99.99,,2013-02-21 19:52:00,
2013-02-21 15:01:00,83.0,64.0,30.01,SSE,155,6.0,11.0,53,-99.99,,,-99.99,,2013-02-21 20:01:00,
2013-02-21 15:11:00,83.0,64.0,30.01,SSE,155,6.0,11.0,53,-99.99,,,-99.99,,2013-02-21 20:11:00,
2013-02-21 15:21:00,82.0,65.0,30.01,South,186,7.0,12.0,56,-99.99,,,-99.99,,2013-02-21 20:21:00,
2013-02-21 15:32:00,82.0,65.0,30.01,South,186,7.0,12.0,56,-99.99,,,-99.99,,2013-02-21 20:32:00,
2013-02-21 15:42:00,83.0,65.0,30.01,SW,218,6.0,13.0,55,-99.99,,,-99.99,,2013-02-21 20:42:00,
2013-02-21 15:53:00,83.0,65.0,30.01,SW,218,6.0,13.0,55,-99.99,,,-99.99,,2013-02-21 20:53:00,
2013-02-21 16:02:00,83.0,65.0,30.00,SSW,198,8.0,15.0,54,-99.99,,,-99.99,,2013-02-21 21:02:00,
2013-02-21 16:12:00,83.0,65.0,30.00,SSW,198,8.0,15.0,54,-99.99,,,-99.99,,2013-02-21 21:12:00,
2013-02-21 16:22:00,82.0,65.0,30.00,SSW,206,8.0,15.0,54,-99.99,,,-99.99,,2013-02-21 21:22:00,
2013-02-21 16:32:00,82.0,65.0,30.00,SSW,206,8.0,15.0,54,-99.99,,,-99.99,,2013-02-21 21:32:00,
2013-02-21 16:42:00,82.0,65.0,30.01,SW,221,8.0,14.0,55,-99.99,,,-99.99,,2013-02-21 21:42:00,
2013-02-21 16:52:00,82.0,65.0,30.01,SW,221,8.0,14.0,55,-99.99,,,-99.99,,2013-02-21 21:52:00,
2013-02-21 17:01:00,81.0,65.0,30.00,SSW,193,7.0,13.0,57,-99.99,,,-99.99,,2013-02-21 22:01:00,
2013-02-21 17:11:00,81.0,65.0,30.00,SSW,193,7.0,13.0,57,-99.99,,,-99.99,,2013-02-21 22:11:00,
2013-02-21 17:21:00,81.0,65.0,30.01,South,189,7.0,13.0,57,-99.99,,,-99.99,,2013-02-21 22:21:00,
2013-02-21 17:32:00,81.0,65.0,30.01,South,189,7.0,13.0,57,-99.99,,,-99.99,,2013-02-21 22:32:00,
2013-02-21 17:42:00,81.0,65.0,30.01,South,184,6.0,12.0,58,-99.99,,,-99.99,,2013-02-21 22:42:00,
2013-02-21 17:52:00,81.0,65.0,30.01,South,184,6.0,12.0,58,-99.99,,,-99.99,,2013-02-21 22:52:00,
2013-02-21 18:01:00,79.0,65.0,30.01,South,184,6.0,11.0,61,-99.99,,,-99.99,,2013-02-21 23:01:00,
2013-02-21 18:11:00,78.0,64.0,30.01,South,184,6.0,10.0,61,-99.99,,,-99.99,,2013-02-21 23:11:00,
2013-02-21 18:21:00,78.0,64.0,30.01,South,184,6.0,10.0,61,-99.99,,,-99.99,,2013-02-21 23:21:00,
2013-02-21 18:32:00,78.0,64.0,30.01,South,184,6.0,10.0,61,-99.99,,,-99.99,,2013-02-21 23:32:00,
2013-02-21 18:42:00,77.0,64.0,30.01,South,186,5.0,8.0,63,-99.99,,,-99.99,,2013-02-21 23:42:00,
2013-02-21 18:53:00,73.0,64.0,30.01,SSW,202,2.0,3.0,71,-99.99,,,-99.99,,2013-02-21 23:53:00,
2013-02-21 19:02:00,73.0,64.0,30.01,SSW,202,2.0,3.0,71,-99.99,,,-99.99,,2013-02-22 00:02:00,
2013-02-21 19:11:00,73.0,64.0,30.01,SSW,202,2.0,3.0,71,-99.99,,,-99.99,,2013-02-22 00:11:00,
2013-02-21 19:22:00,70.0,63.0,30.02,SSW,203,2.0,4.0,77,-99.99,,,-99.99,,2013-02-22 00:22:00,
2013-02-21 19:32:00,70.0,63.0,30.02,SSW,203,2.0,4.0,77,-99.99,,,-99.99,,2013-02-22 00:32:00,
2013-02-21 19:42:00,68.0,62.0,30.02,SSW,196,2.0,3.0,80,-99.99,,,-99.99,,2013-02-22 00:42:00,
2013-02-21 19:52:00,68.0,62.0,30.02,SSW,196,2.0,3.0,80,-99.99,,,-99.99,,2013-02-22 00:52:00,
2013-02-21 20:01:00,65.0,61.0,30.02,SSE,160,1.0,3.0,85,-99.99,,,-99.99,,2013-02-22 01:01:00,
2013-02-21 20:22:00,65.0,60.0,30.02,ESE,106,1.0,3.0,86,-99.99,,,-99.99,,2013-02-22 01:22:00,
2013-02-21 20:42:00,63.0,60.0,30.03,SE,127,1.0,2.0,87,-99.99,,,-99.99,,2013-02-22 01:42:00,
2013-02-21 20:52:00,63.0,60.0,30.03,SE,127,1.0,2.0,87,-99.99,,,-99.99,,2013-02-22 01:52:00,
2013-02-21 21:02:00,62.0,59.0,30.04,ESE,108,1.0,2.0,90,-99.99,,,-99.99,,2013-02-22 02:02:00,
2013-02-21 21:22:00,61.0,58.0,30.04,SE,129,1.0,1.0,91,-99.99,,,-99.99,,2013-02-22 02:22:00,
2013-02-21 21:42:00,60.0,58.0,30.05,ESE,107,0.0,1.0,92,-99.99,,,-99.99,,2013-02-22 02:42:00,
2013-02-21 21:52:00,60.0,58.0,30.05,ESE,107,0.0,1.0,92,-99.99,,,-99.99,,2013-02-22 02:52:00,
2013-02-21 22:02:00,59.0,57.0,30.05,East,92,0.0,1.0,94,-99.99,,,-99.99,,2013-02-22 03:02:00,
2013-02-21 22:21:00,58.0,56.0,30.05,East,86,1.0,1.0,94,-99.99,,,-99.99,,2013-02-22 03:21:00,
2013-02-21 22:42:00,57.0,56.0,30.06,ENE,70,1.0,2.0,94,-99.99,,,-99.99,,2013-02-22 03:42:00,
2013-02-21 22:52:00,57.0,56.0,30.06,ENE,70,1.0,2.0,94,-99.99,,,-99.99,,2013-02-22 03:52:00,
2013-02-21 23:02:00,56.0,55.0,30.05,ESE,121,2.0,3.0,95,-99.99,,,-99.99,,2013-02-22 04:02:00,
2013-02-21 23:21:00,55.0,54.0,30.06,ESE,119,1.0,3.0,95,-99.99,,,-99.99,,2013-02-22 04:21:00,
2013-02-21 23:42:00,55.0,53.0,30.06,SE,124,2.0,3.0,95,-99.99,,,-99.99,,2013-02-22 04:42:00,
2013-02-21 23:52:00,55.0,53.0,30.06,SE,124,2.0,3.0,95,-99.99,,,-99.99,,2013-02-22 04:52:00,